Address 0xbbaae89e75999da81aa14d7951dc4b559ebf9937

 
Txn Hash Method
Block
From
To
Value [Txn Fee]
0x1639b88610565e1e50f23cd0801b928a0d677d6f785126613617f3154c0029aeStake Rewards117710162021-10-14 17:31:042 days 1 hr ago0xbbaae89e75999da81aa14d7951dc4b559ebf9937OUT 0xc5769c1e3bf4e6caaa9f395b2f54695526aa047b0 BNB0.00051171
0xa09b468a839eb364c37a94411da1015b9796275a4cbba6dc95b5bab4c080a9a3Stake117652542021-10-14 12:41:142 days 6 hrs ago0xbbaae89e75999da81aa14d7951dc4b559ebf9937OUT 0xc5769c1e3bf4e6caaa9f395b2f54695526aa047b0 BNB0.001014405
0xd5a319d34fc66edf82a25d6ae8c37117ab96c1dd860ebaa1a0a79ec19f5d253bApprove117652262021-10-14 12:39:502 days 6 hrs ago0xbbaae89e75999da81aa14d7951dc4b559ebf9937OUT GameZone: GZONE Token0 BNB0.000133625
0xe3ecb97981b682f58cf10d2957bfcfe1497239afd3e781e21c749c83c23152dcApprove117651572021-10-14 12:36:232 days 6 hrs ago0xbbaae89e75999da81aa14d7951dc4b559ebf9937OUT GameZone: GZONE Token0 BNB0.000229625
0x41f883a4691ca186d8e17bd314b972390d5c87ff7a5b8432ac8537483ee0ff4eSwap Tokens For ...117651412021-10-14 12:35:352 days 6 hrs ago0xbbaae89e75999da81aa14d7951dc4b559ebf9937OUT PancakeSwap: Router v20 BNB0.001055615
0x09726e55c17ec5694e979daea04f3e4c77dcb250b7836ac14c8aa67d0cbc5e49Modify Ask Order117650982021-10-14 12:33:262 days 6 hrs ago0xbbaae89e75999da81aa14d7951dc4b559ebf9937OUT 0x17539cca21c7933df5c980172d22659b8c345c5a0 BNB0.000178465
0x03210dd1ecb279f595e0cd0165956c180de9b59c53c6fa77339fc8341253b833Enter Staking117650662021-10-14 12:31:502 days 6 hrs ago0xbbaae89e75999da81aa14d7951dc4b559ebf9937OUT 0x4a58ad311da0baae55e23380c84c85e6fff9abb90 BNB0.001297765
0x5c591bc965f7b6ac83736f06882f5c7443cfc824eb6673341c0a5a3e2c1a9a6eDeposit Liquidit...117647922021-10-14 12:18:082 days 6 hrs ago0xbbaae89e75999da81aa14d7951dc4b559ebf9937OUT 0xfec16b15f8d0335b62a68aebacbda1cd4b6a4f380 BNB0.00105252
0x04b765c98186ebd852e08df353e05282119b356789d532a4fb86f5946b9fd286Approve117647872021-10-14 12:17:532 days 6 hrs ago0xbbaae89e75999da81aa14d7951dc4b559ebf9937OUT Binance: BUSD Stablecoin0 BNB0.00022053
0x59f9ed735271ce45a63c2f13617befccb5162bd6eef3a63806588a976e2f001eApprove117647622021-10-14 12:16:382 days 6 hrs ago0xbbaae89e75999da81aa14d7951dc4b559ebf9937OUT Leonicorn Swap: LEOS Token0 BNB0.000220835
0xe26cb36a6d8585bef5ad4491fd1c7185f92bf9626de2c595a8c0b64bdda978b8Swap Tokens For ...117646772021-10-14 12:12:232 days 6 hrs ago0xbbaae89e75999da81aa14d7951dc4b559ebf9937OUT PancakeSwap: Router v20 BNB0.00121501
0x323268fee6497ceb1834d6bb2c095489ab4f00aa9f88a60ae04fffa7e9b17c1cStake117646432021-10-14 12:10:412 days 6 hrs ago0xbbaae89e75999da81aa14d7951dc4b559ebf9937OUT 0x8d40c8a9f4bd8d23a244cec57b20b7f8f43c5e0d0 BNB0.000595035
0xcfcb284afe601256e5c26e53d6875b6d9bf132c506e0aa2834a981cdbffdd1feApprove117646342021-10-14 12:10:142 days 6 hrs ago0xbbaae89e75999da81aa14d7951dc4b559ebf9937OUT Don-Key: DON Token0 BNB0.000221055
0x0275a2ab6ff59ca9ff313068aab16a550376775e92a15042cc0b4e7bd1dfe7bbSwap Tokens For ...117646192021-10-14 12:09:292 days 6 hrs ago0xbbaae89e75999da81aa14d7951dc4b559ebf9937OUT PancakeSwap: Router v20 BNB0.000971095
0x919127242a1486e59291dcb9477178d1ade6444c700b4ac61c8ae0d9adcefed4Approve117646112021-10-14 12:09:052 days 6 hrs ago0xbbaae89e75999da81aa14d7951dc4b559ebf9937OUT Binance: BUSD Stablecoin0 BNB0.00022203
0x0ccddd2c3e4e9145373446631038ffacf1b3ac3bc9a55a598ce0601c07e4a012Transfer116868572021-10-11 18:34:355 days 16 mins ago0xd19b49dd449e5738202259bbbe974a8c45222aa2 IN 0xbbaae89e75999da81aa14d7951dc4b559ebf99370.179771176482505 BNB0.000105
0x5d77d715febe2a400a6961221d524452d88e35e2bdad09d1bc967f175705c6caBuy Tickets115936502021-10-08 12:06:088 days 6 hrs ago0xbbaae89e75999da81aa14d7951dc4b559ebf9937OUT 0x5af6d33de2ccec94efb1bdf8f92bd58085432d2c0 BNB0.00115867
0x2810af7c24ec691f7aea1b55834001434caf5779f53b7f62cda52a22f544dfd0Buy Tickets115935082021-10-08 11:58:518 days 6 hrs ago0xbbaae89e75999da81aa14d7951dc4b559ebf9937OUT 0x5af6d33de2ccec94efb1bdf8f92bd58085432d2c0 BNB0.00100867
0x3bc21732d6432ad392dea55bd2e6968e71965f025c5a51713a8c8ad0e36ef69fApprove115934452021-10-08 11:55:418 days 6 hrs ago0xbbaae89e75999da81aa14d7951dc4b559ebf9937OUT PancakeSwap: CAKE Token0 BNB0.00022215
0xdcd9947ff7a60f9b191e0fe13849778e2aeb3522adc3050b09fa96c997fc2045Create Ask Order115932432021-10-08 11:45:358 days 7 hrs ago0xbbaae89e75999da81aa14d7951dc4b559ebf9937OUT 0x17539cca21c7933df5c980172d22659b8c345c5a0 BNB0.00118801
0x41902a6c3b010ede5e15d0e839ab0f35dce520abed83f5893b430eb39bd1ba79Set Approval For...115932342021-10-08 11:45:088 days 7 hrs ago0xbbaae89e75999da81aa14d7951dc4b559ebf9937OUT 0x0a8901b0e25deb55a87524f0cc164e9644020eba0 BNB0.000224395
0x029a8807e4909ec3190e695d2ee39546b098c99d1612e493718deb0c63180037Transfer115917492021-10-08 10:30:528 days 8 hrs ago0xd19b49dd449e5738202259bbbe974a8c45222aa2 IN 0xbbaae89e75999da81aa14d7951dc4b559ebf99370.129558 BNB0.000105
0xbdcce97ae873be0ed40ffbebc7a35b7d0b6cc0098ff0e805dbaefa8ef388a581Create Profile115915892021-10-08 10:22:528 days 8 hrs ago0xbbaae89e75999da81aa14d7951dc4b559ebf9937OUT 0xdf4dbf6536201370f95e06a0f8a7a70fe40e388a0 BNB0.00123623
0xe508865a031fd290fc38953de441d498666a98702b05893f83ad0d3646f96ac7Approve115915752021-10-08 10:22:108 days 8 hrs ago0xbbaae89e75999da81aa14d7951dc4b559ebf9937OUT PancakeSwap: CAKE Token0 BNB0.00022059
0x63a8c489de66b7f1eff3e29af58aa3cc2f1bf9e62feef26d34ddaf69100f58b8Approve115915282021-10-08 10:19:498 days 8 hrs ago0xbbaae89e75999da81aa14d7951dc4b559ebf9937OUT PancakeSwap: PB Token0 BNB0.000252835
[ Download CSV Export 
Parent Txn Hash Block From To Value
Loading

Contract Name:
0 BNB

Compiler Version
0

Optimization Enabled:
0 BNB

Other Settings:
-NA-
Block Transaction Gas Used Reward
Age Block Fee Address BC Fee Address Voting Power Jailed Incoming
Block Uncle Number Difficulty Gas Used Reward
Loading
Loading
Make sure to use the "Vote Down" button for any spammy posts, and the "Vote Up" for interesting conversations.